Dillon, MT

7:45 PM MST on February 25, 2017 (GMT -0700)
Dillon

Weather History for KDLN - October, 2011

Change the Weather History Date:

Wednesday, October 19, 2011

  Actual Average Record
Temperature  
Mean Temperature 44 °F 43 °F  
Max Temperature 55 °F 56 °F 75 °F (2003)
Min Temperature 32 °F 30 °F 11 °F (1949)
Degree Days  
Heating Degree Days 21    
Month to date heating degree days 297  
Since 1 July heating degree days 523  
Cooling Degree Days 0    
Month to date cooling degree days 1  
Year to date cooling degree days 140  
Moisture  
Dew Point 28 °F    
Average Humidity 54    
Maximum Humidity 75    
Minimum Humidity 32    
Precipitation  
Precipitation 0.00 in 0.02 in 0.86 in (2009)
Month to date precipitation 0.64 0.51  
Year to date precipitation 8.14 9.68  
Snow  
Snow 0.00 in - - ()
Snow Depth 0.00 in    
Sea Level Pressure  
Sea Level Pressure 30.03 in    
Wind  
Wind Speed 6 mph (South)    
Max Wind Speed 15 mph    
Max Gust Speed 17 mph    
Visibility 10 miles    
Events      
T = Trace of Precipitation, MM = Missing Value Source: NWS Daily Summary

Daily Weather History Graph

Daily Weather History Graph

Search for Another Location

Airport or City:

Trip Planner

Search our weather history database for the weather conditions in past years. The results will help you decide how hot, cold, wet, or windy it might be!

Date:

Astronomy

Oct. 19, 2011 Rise Set
Actual Time 7:51 AM MDT 6:38 PM MDT
Civil Twilight 7:21 AM MDT 7:08 PM MDT
Nautical Twilight 6:47 AM MDT 7:42 PM MDT
Astronomical Twilight 6:12 AM MDT 8:16 PM MDT
Moon No Moon Rise 2:32 PM MDT (10/19)
Length of Visible Light 11h 46m
Length of Day
10h 47m
Waning Gibbous, 54% of the Moon is Illuminated
Oct 19
Waning Gibbous
Oct 19
Last Quarter
Oct 26
New
Nov 2
First Quarter
Nov 10
Full

Hourly Weather History & Observations

Time (MDT) Temp. Windchill Dew Point Humidity Pressure Visibility Wind Dir Wind Speed Gust Speed Precip Events Conditions
12:53 AM 37.9 °F 30.9 °F 27.0 °F 65% 30.18 in 10.0 mi South 10.4 mph - N/A   Clear
1:53 AM 35.1 °F 31.0 °F 27.0 °F 72% 30.16 in 10.0 mi South 4.6 mph - N/A   Clear
2:53 AM 36.0 °F 29.6 °F 27.0 °F 70% 30.14 in 10.0 mi South 8.1 mph - N/A   Clear
3:53 AM 36.0 °F 29.0 °F 27.0 °F 70% 30.11 in 10.0 mi South 9.2 mph - N/A   Clear
5:53 AM 34.0 °F 26.0 °F 26.1 °F 73% 30.10 in 10.0 mi SSW 10.4 mph - N/A   Clear
6:53 AM 33.1 °F 24.9 °F 26.1 °F 75% 30.11 in 10.0 mi SSW 10.4 mph - N/A   Clear
7:53 AM 35.1 °F 27.9 °F 26.1 °F 70% 30.08 in 10.0 mi South 9.2 mph - N/A   Clear
8:53 AM 36.0 °F 27.5 °F 26.1 °F 67% 30.09 in 10.0 mi SSW 12.7 mph - N/A   Clear
10:53 AM 42.1 °F 37.1 °F 28.9 °F 60% 30.04 in 10.0 mi South 8.1 mph - N/A   Clear
11:53 AM 46.0 °F 41.4 °F 30.0 °F 54% 30.02 in 10.0 mi SSW 9.2 mph - N/A   Clear
12:53 PM 50.0 °F - 27.0 °F 41% 29.99 in 10.0 mi SSW 4.6 mph - N/A   Clear
1:53 PM 52.0 °F - 26.1 °F 37% 29.96 in 10.0 mi Calm Calm - N/A   Clear
2:53 PM 54.0 °F - 25.0 °F 33% 29.93 in 10.0 mi Calm Calm - N/A   Clear
3:53 PM 55.0 °F - 27.0 °F 34% 29.92 in 10.0 mi Calm Calm - N/A   Clear
4:53 PM 54.0 °F - 32.0 °F 43% 29.94 in 10.0 mi Calm Calm - N/A   Partly Cloudy
5:53 PM 51.1 °F - 33.1 °F 50% 29.94 in 10.0 mi Calm Calm - N/A   Clear
6:53 PM 46.9 °F - 32.0 °F 56% 29.98 in 10.0 mi Calm Calm - N/A   Clear
7:53 PM 43.0 °F - 30.9 °F 62% 30.00 in 10.0 mi Calm Calm - N/A   Clear
8:53 PM 39.9 °F 34.5 °F 30.0 °F 68% 30.02 in 10.0 mi SSE 8.1 mph - N/A   Clear
9:53 PM 45.0 °F 40.1 °F 28.9 °F 53% 30.00 in 10.0 mi South 9.2 mph - N/A   Clear
10:53 PM 39.0 °F 32.8 °F 28.9 °F 67% 30.03 in 10.0 mi SSW 9.2 mph - N/A   Clear
11:53 PM 45.0 °F 40.1 °F 28.9 °F 53% 30.00 in 10.0 mi South 9.2 mph - N/A   Clear